Tracking 18945 objects as of 21-Jan-2018
HD Live streaming from Space Station
objects crossing your sky now

CZ-3B DEB

Track CZ-3B DEB now!


NORAD ID: 42464
Int'l Code: 2010-042AF
Perigee: 1,078.0 km
Apogee: 42,779.5 km
Inclination: 24.5 °
Period: 789.6 minutes
Semi major axis: 28299 km
RCS: Unknown
Launch date: September 4, 2010
Source: People's Republic of China (PRC)
Launch site: Xichang Space Center, China (XSC)

Note: This is SATELLITE DEBRIS
aabbcc
Your satellite tracking list
Your tracking list is empty




NASA's NSSDC Master Catalog

Two Line Element Set (TLE):
1 42464U 10042AF  18017.63117957 -.00000177  00000-0  00000+0 0  9998
2 42464  24.5368 297.1397 7367821 209.6058  72.5926  1.82359652 26406
Source of the keplerian elements: AFSPC